Location: McFarlands Corners
(41.4117°N, 81.3382°W)
Time: 18:17:47
(UTC+00:00)

Vanguard 1 Rocket - Pass Details

Date: 22 February 2026
Orbit: 653 x 4214 km, 34.3° (Epoch: 8 March)

Event Time Altitude Azimuth Distance (km) Brightness Sun altitude
Rises 18:48:31 0° 251° (WSW) 3,980 11.2 36.2°
Reaches altitude 10° 18:50:44 10° 247° (WSW) 3,291 11.0 36.0°
Maximum altitude 18:59:06 60° 169° (S) 2,168 10.4 35.4°
Drops below altitude 10° 19:15:42 10° 96° (E) 6,178 11.5 34.0°
Sets 19:21:40 0° 94° (E) 7,682 11.9 33.4°
